Theta_e
313 313 316 319 321 323 322 322 323 321 323 320 318 323 320 319 323 321 320 320 318 318 318 319 319 318 319 322 323 325 324 324 325 324 322 326 326 322 325 329 332 336 338 337 337 337 338 339 338 337 336 336 335 334 333 332 331 330 329 328 328 328 327 324 321 321 324 329 332 333 333 333 333 333 333 333 332 331 330 331 332 333 332 331 330 328 327 326 325 323 321 319 319 318 318 318 319
315 315 319 321 322 324 322 322 330 328 325 319 316 321 318 321 323 320 321 320 319 318 319 321 320 320 321 322 322 325 328 329 327 325 325 328 326 321 325 328 331 336 337 337 337 336 337 338 338 337 336 336 335 334 332 331 330 328 327 327 327 327 327 324 320 318 320 323 326 329 332 332 333 333 333 331 331 330 329 330 332 333 332 330 328 327 326 325 323 319 317 314 312 312 314 315 315
317 319 321 323 323 323 325 325 328 328 324 319 316 318 319 322 323 320 320 317 319 318 318 319 318 319 320 322 322 326 329 328 326 325 325 328 328 324 327 329 333 338 336 336 336 336 337 337 337 337 336 336 335 333 331 330 330 328 327 326 326 326 326 325 320 318 319 320 322 325 328 330 332 331 331 329 329 330 327 326 330 332 331 329 327 326 323 320 317 315 314 311 307 307 309 311 313
319 322 322 323 324 323 332 332 331 329 320 320 318 318 320 322 323 319 317 317 318 318 318 318 319 319 319 321 321 323 325 324 325 325 323 328 331 328 328 330 333 337 337 336 336 336 337 336 337 337 336 335 334 333 331 331 331 330 329 327 326 325 326 325 321 318 318 319 320 322 325 326 328 328 328 327 327 329 326 323 326 330 330 328 326 324 321 317 314 314 314 310 306 307 307 308 309
319 322 321 321 325 324 332 330 332 332 320 322 320 317 320 322 322 316 316 318 317 318 318 318 319 319 320 321 321 322 323 323 323 322 322 327 331 330 330 329 332 336 336 336 336 336 336 336 336 336 336 335 334 333 332 332 332 332 331 330 327 325 326 325 322 319 319 319 321 321 322 324 325 325 326 325 326 328 325 322 324 326 327 325 324 324 322 318 315 315 315 309 305 307 308 308 308
319 321 321 321 323 321 329 326 324 326 319 324 320 317 321 319 319 315 315 317 316 318 318 318 318 319 323 323 323 324 324 323 322 320 321 325 330 331 330 329 332 335 334 334 335 336 335 336 336 335 336 336 335 334 335 334 333 333 333 332 330 327 325 325 323 319 319 320 321 321 321 323 325 325 327 327 327 327 325 324 323 324 324 324 325 325 323 320 317 316 315 310 306 307 308 308 309
320 321 321 324 323 319 327 324 319 321 317 318 320 319 318 315 316 315 315 316 316 317 317 318 317 319 323 323 322 323 323 323 321 320 321 325 330 332 330 331 333 334 334 334 336 337 336 335 336 334 335 336 336 335 336 335 334 334 334 333 331 328 326 325 324 321 320 320 321 321 322 325 326 326 327 329 328 328 326 325 325 325 325 326 326 325 322 320 317 316 315 311 305 307 308 308 309
321 321 321 329 330 326 329 323 320 323 318 314 316 317 315 315 315 315 315 315 316 316 317 318 317 320 320 320 322 322 321 321 321 322 324 325 330 332 332 334 335 333 334 336 337 338 337 335 335 334 334 336 336 336 335 335 335 335 334 334 332 330 327 326 325 323 322 320 320 321 323 326 327 327 328 329 328 328 328 327 327 328 327 326 325 323 321 318 316 315 315 312 306 306 307 307 308
321 322 320 328 332 328 327 321 319 320 318 316 315 316 315 316 315 315 315 315 316 315 317 317 317 321 320 320 322 321 320 320 321 324 327 327 329 331 333 336 337 334 334 338 337 337 337 335 334 334 335 336 336 336 335 335 335 334 335 334 332 330 328 327 326 326 325 323 321 321 324 327 328 328 328 329 329 329 328 327 328 328 327 325 324 322 320 317 314 314 314 312 307 305 306 306 307
320 321 318 327 330 322 319 319 321 318 317 317 314 316 316 315 316 315 315 314 316 317 317 318 318 319 319 319 319 319 319 320 322 326 330 332 331 331 334 337 338 335 334 336 337 336 336 334 334 333 334 335 336 336 335 336 335 335 335 334 333 331 329 328 328 328 328 327 324 323 324 328 329 329 329 329 329 330 328 327 326 326 326 324 322 322 321 317 314 314 314 312 308 304 304 305 305
320 317 319 331 330 322 321 321 320 319 317 317 315 316 316 316 316 315 316 315 315 317 317 317 318 317 317 317 317 316 317 319 324 328 333 335 332 331 333 336 338 338 336 337 337 336 336 334 334 333 334 334 335 336 336 336 336 336 336 335 333 331 329 328 328 328 328 329 327 326 326 329 330 329 329 328 328 329 328 326 325 325 325 324 323 323 322 317 315 315 314 311 307 304 304 303 303
318 320 333 335 326 325 324 322 319 318 318 318 317 316 316 316 316 315 315 316 315 315 315 316 318 317 317 316 314 313 315 317 321 327 333 336 334 331 331 332 335 336 338 338 337 336 335 333 333 333 334 334 335 336 336 336 336 336 336 335 334 332 330 329 329 328 328 329 328 328 328 330 331 329 329 328 328 328 328 326 324 325 325 324 325 326 324 318 316 316 314 311 307 304 303 303 303
317 322 343 330 321 327 323 321 321 320 318 318 317 316 317 316 316 316 315 316 315 315 315 316 317 317 317 315 313 312 313 315 317 322 329 335 335 333 330 330 332 333 336 335 334 332 330 330 330 332 334 335 335 335 335 336 336 336 336 335 335 333 331 330 329 329 329 329 329 329 329 330 330 329 328 327 327 328 327 326 325 325 325 326 327 326 324 320 317 316 315 312 308 305 303 302 303
315 319 337 325 319 326 321 320 320 320 321 319 317 315 317 316 316 317 316 317 315 314 315 315 317 317 317 315 313 312 312 313 314 316 321 328 332 332 329 328 329 330 331 330 328 326 325 326 327 329 333 335 335 335 335 335 336 336 336 335 335 335 333 331 330 329 328 328 327 328 329 330 329 329 328 326 326 327 326 325 326 327 327 327 328 325 323 320 318 317 316 313 310 307 305 303 303
316 317 331 326 319 321 321 323 322 322 322 319 318 315 317 316 316 317 316 318 315 314 315 315 316 317 317 317 315 313 312 312 312 313 315 319 323 326 326 325 325 326 326 326 325 324 323 324 326 329 332 335 335 335 335 334 335 335 335 335 335 335 334 333 331 329 327 326 325 326 328 328 328 328 328 326 325 326 325 325 326 327 326 327 328 325 322 321 319 317 317 315 313 310 308 305 304
317 318 330 328 318 320 320 321 322 323 321 316 316 316 316 316 316 316 316 317 315 314 315 315 315 315 316 316 315 313 313 312 312 313 313 314 316 319 321 322 321 321 322 322 322 322 322 321 327 331 332 334 334 334 334 334 334 334 335 335 335 336 335 334 332 331 329 327 326 324 325 326 327 326 327 326 325 325 325 325 326 325 326 327 328 325 323 322 320 318 318 318 317 315 313 310 308
317 323 336 329 319 319 318 319 322 324 322 316 315 316 316 316 316 316 316 316 316 315 315 315 314 315 315 315 315 314 313 312 313 314 314 314 314 315 317 319 319 319 320 319 320 320 320 319 323 327 330 331 331 332 333 333 332 333 335 335 335 335 335 334 333 332 330 328 327 324 324 324 325 325 326 325 325 325 325 326 326 326 326 326 326 325 324 323 321 320 318 317 317 318 318 316 313
321 333 339 324 318 318 316 320 319 320 320 315 315 316 317 317 316 315 315 315 315 314 314 314 314 314 314 314 315 314 313 313 314 315 315 315 315 315 315 316 317 317 317 318 318 318 318 318 319 322 326 326 327 330 331 331 332 332 333 333 334 334 334 334 334 333 330 329 327 325 324 324 325 325 325 325 327 327 326 327 327 327 327 326 326 326 325 324 323 322 319 317 317 318 320 320 318
322 334 333 321 321 318 314 317 315 316 317 315 315 316 317 317 316 315 316 315 314 315 314 312 313 314 313 314 313 313 312 313 315 316 316 316 315 315 315 315 315 316 316 316 317 316 316 316 317 320 322 324 324 327 329 329 330 330 330 331 332 333 334 334 334 334 332 330 328 327 325 325 325 325 325 326 330 330 328 328 327 327 327 327 328 326 326 325 324 323 322 320 319 320 321 320 319
317 327 327 319 320 316 313 316 315 316 316 314 315 315 317 317 316 315 316 314 313 315 315 313 313 313 313 313 312 312 312 313 315 316 317 316 316 316 315 315 314 314 315 315 315 315 316 315 317 318 321 323 324 326 328 328 329 329 328 329 330 331 333 333 334 334 333 331 330 329 327 325 325 327 327 327 330 331 330 329 327 327 328 328 328 327 327 326 325 325 324 322 321 322 321 320 321
316 322 324 316 315 316 316 316 316 316 316 315 315 315 316 316 316 315 315 316 315 315 315 315 315 315 314 313 313 312 312 312 314 316 317 317 316 315 315 315 314 314 314 314 314 315 315 315 316 317 320 323 324 327 328 330 332 330 328 329 330 330 331 331 332 333 333 332 331 331 329 327 326 329 330 328 330 332 331 329 327 328 328 328 328 328 328 327 327 326 325 324 322 322 321 321 322
316 317 317 314 313 316 316 315 316 316 316 316 315 315 316 315 316 315 315 318 318 315 315 316 315 315 315 314 313 312 311 312 313 315 316 316 316 315 315 314 313 313 313 313 313 314 314 314 315 316 318 321 325 329 329 330 331 329 329 331 331 331 331 330 331 331 331 331 331 331 331 330 327 329 331 330 331 332 331 330 329 329 329 329 329 329 328 327 327 327 327 325 323 323 322 322 323
319 316 314 315 315 316 317 315 316 316 316 316 314 315 315 315 315 315 314 316 316 315 316 316 315 315 315 314 313 312 311 311 312 313 314 315 315 314 313 313 313 312 313 313 313 313 313 313 314 314 316 320 325 329 329 330 330 329 329 332 332 331 330 330 330 330 330 330 331 332 332 331 330 330 332 332 332 331 332 332 331 331 330 330 330 329 328 327 327 326 327 327 324 324 322 323 323
321 319 315 316 316 316 317 316 316 315 315 315 315 315 315 315 315 315 315 315 315 315 315 315 315 315 314 314 313 312 311 311 312 312 312 313 313 312 312 312 313 313 313 313 313 313 313 313 312 313 314 319 326 329 329 330 330 329 329 332 333 330 330 331 331 330 331 332 331 332 332 332 332 332 332 331 331 332 332 332 331 331 330 331 330 328 328 328 327 327 327 327 325 325 323 322 323
319 319 315 316 316 317 317 317 317 315 315 315 315 315 315 315 314 314 315 315 315 315 315 315 314 314 313 313 312 311 311 311 311 311 312 312 312 312 312 313 313 313 313 313 313 313 313 313 313 313 313 318 325 328 329 330 330 329 328 334 336 330 330 331 332 331 331 332 332 332 333 333 333 332 332 331 331 332 331 331 331 331 330 330 329 328 328 328 328 328 328 326 325 325 324 322 323
317 316 316 316 316 316 316 316 317 316 315 315 315 315 315 314 314 315 314 315 315 314 314 313 313 313 313 312 312 311 311 311 312 311 312 312 312 312 312 313 313 313 313 313 313 313 313 313 313 313 312 316 324 328 329 329 330 329 328 333 335 332 331 332 331 331 332 332 333 333 333 333 333 332 331 331 331 331 331 330 330 330 329 329 329 329 328 328 328 328 327 326 325 326 325 323 324
316 315 316 316 316 316 316 316 316 316 316 315 316 316 315 314 315 316 315 314 314 314 313 312 312 312 312 312 311 311 311 311 311 312 312 312 312 313 313 313 313 314 313 313 313 313 313 313 313 313 313 317 324 329 329 329 330 329 329 331 333 331 332 332 330 331 333 332 332 333 332 332 332 331 331 331 331 330 330 329 329 329 329 329 329 329 328 328 328 328 327 327 327 326 324 323 324
315 316 317 316 315 315 315 315 315 316 315 315 316 315 314 313 314 317 315 314 314 313 313 312 311 311 311 311 310 311 311 311 312 312 312 312 313 313 313 313 313 314 313 313 313 312 313 313 313 313 313 319 325 329 329 328 328 329 329 330 331 331 331 332 330 330 331 332 332 332 331 331 331 332 331 331 330 330 329 329 329 329 328 329 329 328 328 328 327 327 326 326 326 324 323 324 324
315 316 318 321 319 319 316 314 315 315 316 315 315 315 317 315 314 316 314 314 314 312 312 311 311 311 310 310 310 310 311 311 312 312 313 313 313 313 313 313 313 313 313 313 312 313 313 313 314 314 316 321 325 329 328 327 329 330 330 330 330 330 330 330 329 330 330 330 331 330 329 330 331 331 330 330 329 328 329 329 329 329 328 328 328 327 328 328 327 326 325 325 324 323 323 324 324
317 315 316 322 324 324 317 313 315 314 315 315 315 319 326 324 314 313 314 313 313 311 311 311 311 310 310 310 310 311 311 311 312 312 313 312 312 313 313 313 313 313 313 313 312 313 312 313 314 315 318 322 325 328 328 328 329 329 330 330 331 330 329 328 329 330 330 329 329 329 329 329 329 328 327 328 327 327 327 328 329 328 328 327 327 327 327 327 327 326 324 324 324 323 324 324 323
318 314 319 323 321 328 323 312 314 315 314 314 316 319 326 325 315 312 313 313 312 311 311 311 310 311 310 310 310 310 311 311 312 312 312 313 312 313 313 313 314 313 313 312 312 312 313 314 315 316 320 323 325 327 327 327 328 328 331 330 329 330 329 327 328 329 329 328 329 329 329 328 328 327 327 326 325 325 326 326 327 328 327 327 327 327 327 326 325 325 324 324 324 324 324 324 322
323 316 326 328 318 330 329 312 313 317 314 312 316 320 320 320 315 312 313 312 312 312 311 311 310 310 310 310 310 310 311 311 312 312 312 312 312 312 313 313 313 312 312 312 311 312 313 315 316 318 321 321 322 324 324 326 327 326 329 329 327 328 328 327 327 328 327 328 328 328 328 327 327 327 326 326 325 324 324 324 325 326 326 326 326 326 325 325 324 324 324 323 323 324 323 322 321
333 321 325 331 321 325 326 314 312 314 314 312 314 320 322 319 312 311 312 311 311 311 311 311 310 311 310 310 310 310 311 311 312 312 312 312 311 312 312 312 312 311 311 311 311 312 312 315 318 320 322 322 323 323 323 326 328 326 326 326 327 326 327 327 327 327 326 326 326 326 326 326 326 326 326 325 324 324 323 323 323 324 325 325 324 324 324 324 324 324 323 322 322 322 321 320 319
333 322 321 329 323 321 324 321 314 311 314 315 313 316 320 318 311 310 312 311 311 310 310 311 310 310 310 310 310 310 311 311 312 312 312 311 311 311 311 311 311 311 310 311 312 313 315 316 317 320 321 322 325 325 323 323 325 326 326 326 326 325 325 326 326 326 325 325 324 324 324 324 324 324 323 322 322 322 322 323 323 323 324 323 323 323 323 323 322 321 321 320 319 317 315 315 314
332 326 322 325 322 320 323 323 316 312 315 316 315 314 315 315 311 310 311 310 310 310 310 310 310 310 310 310 310 310 310 311 312 312 311 310 310 310 311 310 310 310 310 312 313 315 318 317 315 319 321 321 324 325 323 323 324 325 326 326 325 325 325 325 325 325 324 323 323 322 322 322 321 321 320 320 320 320 321 322 323 322 322 322 322 322 321 321 320 319 317 315 312 309 307 307 307
332 330 328 328 325 322 323 323 317 313 315 316 316 315 314 315 313 311 310 310 309 310 310 309 310 310 310 310 310 310 310 310 311 311 310 309 309 310 310 310 310 310 310 312 315 316 317 318 317 319 321 321 323 323 323 324 324 323 323 324 323 323 323 323 323 322 322 321 321 320 321 320 320 319 319 320 321 321 322 322 322 321 321 320 320 320 319 317 315 312 310 306 304 304 304 305 306
325 326 326 326 325 323 323 323 317 312 315 318 316 315 314 315 314 311 309 310 309 309 309 309 310 310 310 310 310 310 310 310 310 310 309 309 309 310 310 310 310 310 311 312 314 316 316 319 320 321 321 321 322 323 324 323 322 322 323 323 323 323 322 322 321 320 320 319 319 319 320 320 320 320 320 320 321 321 321 321 320 320 319 318 318 316 313 310 307 304 303 302 301 301 302 304 307
319 321 321 322 323 322 322 321 317 311 315 321 319 316 315 314 314 311 309 309 308 308 309 309 309 310 310 311 310 310 310 309 309 309 309 309 309 310 309 309 310 311 313 312 313 316 317 319 322 323 322 321 321 322 323 322 321 323 324 323 323 322 321 321 320 319 318 318 318 318 319 319 320 320 320 319 319 319 318 317 316 314 312 311 311 308 305 303 302 301 301 300 300 300 300 300 302
318 319 318 321 322 320 321 322 317 313 315 323 323 318 317 316 315 312 309 309 310 311 311 312 312 310 310 311 310 310 309 309 309 309 309 308 309 310 309 310 312 312 314 314 313 316 319 319 321 323 323 322 321 321 321 322 322 322 322 322 321 320 319 319 318 318 318 317 317 317 317 318 318 318 317 316 315 313 312 311 309 307 305 303 303 302 301 301 300 300 300 300 299 299 299 298 298
319 319 318 320 321 320 323 323 318 316 316 319 321 318 316 316 316 315 312 310 312 312 312 313 312 311 311 311 311 311 310 309 309 309 309 308 308 310 309 310 313 314 315 315 314 318 319 319 320 321 321 322 322 321 322 323 322 322 321 321 320 319 318 318 317 317 316 316 316 315 315 313 313 313 310 309 308 307 305 304 303 302 301 300 300 300 300 300 299 299 299 299 298 298 298 297 296
320 320 319 320 321 321 323 322 320 323 324 318 317 319 321 321 318 318 315 311 311 311 311 312 311 311 311 311 311 310 310 310 310 309 309 308 308 310 309 310 313 314 315 316 316 319 320 319 320 320 319 320 320 320 320 320 320 320 320 319 319 318 317 316 316 316 314 314 313 311 309 307 307 306 305 303 303 302 301 301 301 300 300 299 299 299 299 299 298 298 297 297 297 297 296 296 295
321 322 320 319 321 321 321 322 321 327 331 321 317 323 331 331 325 321 318 315 314 312 309 310 311 310 309 310 309 309 310 310 310 310 310 309 309 310 308 310 313 313 314 317 316 318 320 320 320 320 319 318 317 317 318 318 318 318 317 317 317 316 316 315 314 314 312 310 309 306 304 303 302 302 301 301 300 300 300 300 299 299 299 299 298 298 298 297 296 296 296 295 296 295 295 295 294
322 324 322 319 320 321 323 324 322 327 329 321 318 325 330 328 324 324 324 321 321 316 309 308 310 310 309 309 309 309 309 309 309 309 309 309 308 309 309 309 312 312 314 318 316 315 318 319 319 319 319 317 316 317 318 318 318 317 316 315 315 316 315 313 311 310 308 306 304 302 301 300 300 300 299 299 299 299 299 299 298 298 298 298 297 296 296 296 295 295 294 294 294 294 293 294 293
325 324 322 322 320 321 323 322 323 326 325 322 323 325 324 323 322 323 325 325 325 322 316 311 308 309 310 309 309 309 309 309 309 308 308 309 308 309 309 309 311 311 313 317 316 314 316 317 317 317 317 316 316 318 317 317 317 317 316 315 315 314 312 310 307 305 304 303 302 300 299 299 298 299 299 299 298 298 298 298 297 297 297 296 296 295 295 295 294 294 293 293 293 293 293 292 292
325 321 321 323 322 324 325 324 324 323 322 325 326 322 322 324 323 321 321 323 324 323 321 316 310 309 309 309 309 308 309 309 309 309 309 309 308 309 309 309 312 313 314 315 315 316 317 315 314 315 316 316 316 316 316 316 316 315 315 315 314 311 308 306 304 303 302 301 300 299 299 298 298 298 298 298 298 297 297 297 297 296 296 295 295 294 294 294 293 293 293 292 292 292 292 292 291
319 317 321 324 323 327 329 327 327 326 324 326 327 322 322 326 326 323 319 321 325 323 321 316 311 310 310 309 308 308 308 309 309 309 309 309 308 309 308 309 312 314 314 315 314 316 317 314 314 315 316 315 315 315 315 315 314 314 315 314 311 307 305 304 303 302 300 299 299 299 298 298 298 298 297 297 297 297 296 296 296 295 295 294 294 294 293 293 293 292 292 292 292 292 291 291 291
315 321 327 327 327 328 329 328 325 326 325 324 326 324 322 326 325 323 322 324 325 322 321 321 314 310 310 309 308 308 308 308 308 308 308 308 308 308 308 310 312 314 314 312 313 315 314 313 314 316 315 314 314 315 315 314 313 313 313 311 307 305 304 304 302 301 299 299 299 298 298 298 297 297 297 297 297 296 296 295 295 294 294 293 293 293 293 292 292 292 292 292 291 291 291 291 290
317 330 331 326 328 327 328 327 325 326 326 324 325 323 321 324 323 322 323 321 321 320 323 328 319 309 309 309 308 308 308 308 308 308 307 307 307 308 309 310 312 313 312 311 313 315 314 312 314 316 315 314 314 314 313 312 311 311 309 307 305 304 304 303 302 301 299 299 299 298 298 298 297 297 297 296 296 295 295 294 294 294 293 293 293 293 292 292 292 292 291 291 291 291 290 290 290
321 329 327 324 326 325 326 326 325 325 323 319 319 319 320 323 322 323 323 321 322 318 316 320 315 309 310 310 309 308 308 308 308 307 307 307 307 308 309 310 311 312 311 311 314 316 314 313 313 314 314 314 313 312 311 310 309 307 306 304 303 303 303 302 301 300 299 298 299 298 298 298 297 297 296 296 295 294 294 294 293 293 293 293 292 292 292 292 292 291 291 291 290 290 290 289 289
320 322 324 325 325 326 329 327 323 324 323 317 315 318 322 323 323 323 322 320 318 314 311 313 312 310 311 311 310 308 307 308 308 307 307 307 307 308 309 310 311 311 311 312 315 316 314 313 312 313 313 313 312 310 309 308 306 304 303 303 302 302 301 300 299 299 299 298 298 298 298 297 297 296 296 295 295 294 294 293 293 293 293 293 292 292 292 292 291 291 291 290 290 290 289 289 289
317 320 323 323 324 329 332 329 326 326 325 318 314 319 325 326 325 320 313 310 311 312 313 312 310 311 311 310 309 307 306 307 307 307 307 307 307 307 309 309 310 311 311 313 315 315 313 312 312 313 313 312 311 309 307 305 304 303 302 301 301 300 300 299 298 298 298 298 297 297 297 297 296 296 295 295 294 294 294 293 293 293 293 293 292 292 292 291 291 291 290 290 290 289 289 289 289
318 321 324 322 325 327 325 324 324 323 324 320 317 321 324 323 323 316 309 309 310 310 310 311 311 310 309 308 307 306 307 307 306 306 306 307 306 307 308 309 310 310 311 312 314 314 313 312 312 313 312 312 310 307 306 304 303 302 301 300 300 299 299 298 298 298 297 297 297 297 297 296 296 295 295 295 294 294 294 294 293 293 293 293 292 292 291 291 291 290 290 290 289 289 289 289 288
319 319 322 321 320 322 322 321 319 319 323 323 320 322 323 323 321 316 315 317 316 311 308 308 309 308 307 306 306 306 306 306 306 306 306 306 306 306 308 309 309 310 310 311 312 312 312 312 312 313 312 311 309 306 304 303 302 301 300 299 299 298 298 297 297 298 297 297 297 296 296 296 295 295 295 295 294 294 294 294 293 293 293 293 292 292 291 291 290 290 290 289 289 289 288 288 288
321 321 320 317 317 322 326 325 323 323 325 324 321 321 323 324 323 318 315 317 319 317 313 308 305 305 305 305 306 306 306 306 306 306 305 306 306 306 308 309 309 309 310 310 311 310 311 312 312 312 311 310 308 305 303 303 302 301 299 299 298 298 297 297 297 297 297 297 296 296 296 295 295 295 295 295 294 294 294 294 293 293 293 293 292 292 291 291 290 290 289 289 289 288 288 288 288
318 321 318 319 324 325 324 325 326 326 325 325 323 320 320 320 322 321 318 318 321 319 316 312 307 304 303 304 305 305 305 305 305 305 305 305 305 305 307 309 309 309 310 311 310 309 310 311 312 312 310 309 306 304 303 303 302 300 299 298 297 297 297 296 297 297 297 297 296 296 295 295 295 295 294 295 294 294 294 293 293 293 293 292 292 291 291 290 290 289 289 289 288 288 288 288 288
313 316 315 318 324 324 323 324 325 326 326 327 326 322 322 321 321 323 321 322 323 318 316 317 311 304 303 304 305 305 305 305 305 305 305 304 305 305 306 308 309 309 310 312 310 309 309 311 311 311 309 307 305 303 303 302 301 300 299 298 297 296 296 296 296 296 296 296 296 296 295 295 295 295 294 294 294 294 293 293 293 293 293 292 292 291 291 290 289 289 289 289 288 288 288 288 288
315 318 318 318 318 319 322 322 322 327 327 328 327 324 324 324 321 322 321 320 321 318 319 318 309 305 305 305 306 306 306 306 306 305 305 304 304 304 305 308 309 309 310 312 311 309 309 311 311 310 307 305 304 303 302 301 300 299 298 297 297 296 296 296 296 296 296 296 295 295 295 294 294 294 294 294 294 293 293 293 293 292 292 292 291 291 290 290 289 289 289 289 288 288 288 288 288
317 318 318 318 317 319 322 321 322 324 324 326 327 324 324 322 318 320 321 319 317 314 315 314 309 306 307 306 307 307 306 307 306 305 305 305 304 304 305 307 309 309 309 311 310 309 310 311 310 308 306 304 303 302 302 301 300 298 298 297 296 296 296 296 295 295 295 295 295 295 294 294 294 294 294 293 293 293 293 292 292 292 292 291 291 291 290 290 289 289 289 289 288 288 288 288 287
Wind_Speed
2 2 3 5 3 4 2 2 2 4 4 3 1 2 0 2 2 3 2 2 2 3 11 15 13 14 14 14 16 15 11 3 2 3 5 6 9 8 5 6 8 9 8 11 12 11 10 10 11 11 10 9 8 9 9 9 8 8 8 8 8 8 8 9 9 12 12 12 13 12 11 11 10 11 12 12 12 12 12 12 12 12 13 13 12 12 12 11 11 10 10 9 8 6 5 4 4
1 3 4 5 2 1 2 2 3 3 5 3 2 2 1 2 3 4 2 2 3 6 17 24 25 24 21 20 17 16 14 10 9 10 11 11 10 8 6 8 10 10 8 11 13 11 10 10 10 11 11 9 8 9 9 9 8 8 8 8 8 8 8 8 9 10 11 11 12 12 12 11 10 10 10 10 10 9 9 9 10 11 12 13 13 13 13 13 12 12 11 11 9 7 5 3 3
2 3 4 4 1 3 3 3 3 2 5 4 2 2 1 3 4 6 4 3 4 9 16 17 16 12 13 14 10 9 6 8 14 14 14 13 10 7 8 10 12 8 6 12 14 12 11 10 10 10 10 9 9 9 10 9 8 8 8 8 7 7 7 8 8 9 10 10 11 11 12 11 10 9 8 8 8 8 8 8 7 10 11 13 14 14 14 13 13 13 13 13 11 8 5 3 2
3 3 3 1 1 3 3 4 3 5 4 3 1 4 2 5 6 6 3 6 6 8 9 8 8 8 13 12 6 8 6 5 8 9 12 15 12 8 9 11 12 9 8 13 14 12 11 10 10 10 10 9 9 9 9 8 8 7 7 7 7 7 7 7 8 9 9 10 10 10 10 11 10 9 8 8 7 7 9 8 6 8 10 11 13 13 14 14 13 14 15 15 13 10 6 4 3
1 3 3 2 1 1 3 3 3 5 4 5 2 4 5 6 7 5 4 8 9 10 11 9 6 8 15 10 4 4 3 3 4 6 13 16 15 10 10 12 13 11 10 13 14 13 11 10 10 10 10 10 10 9 8 7 7 6 6 6 6 6 6 7 8 9 9 9 9 9 9 10 9 8 8 7 7 7 9 9 8 7 8 10 12 13 14 14 14 15 16 17 15 12 9 6 5
1 2 3 4 4 3 3 4 4 3 3 5 4 4 6 7 7 6 7 10 11 11 11 9 8 11 13 11 9 6 3 5 5 10 16 17 15 12 11 12 14 12 10 13 14 12 11 11 11 11 11 10 10 9 8 7 6 5 5 5 5 6 6 7 7 8 9 9 8 8 8 9 8 7 7 7 7 7 9 9 9 8 8 9 11 13 14 15 16 17 17 18 17 14 12 9 7
1 2 3 4 5 4 4 4 4 2 1 5 6 6 7 8 11 10 7 8 9 10 10 12 15 14 9 6 9 8 5 5 8 13 16 16 16 12 10 13 14 12 11 13 15 12 11 12 12 12 11 10 10 9 8 7 6 5 5 5 5 5 6 7 7 7 8 8 7 7 8 7 7 6 6 6 7 8 9 10 9 9 10 11 12 14 15 17 17 18 18 19 17 16 14 12 9
2 3 4 4 3 4 4 4 3 3 1 4 5 7 9 11 13 10 5 5 5 6 11 14 12 9 3 3 5 6 7 8 11 15 16 16 16 14 11 13 14 13 12 13 13 12 11 12 12 12 11 11 10 9 8 7 7 6 6 6 5 5 6 6 6 6 6 6 6 7 6 6 6 6 6 6 7 7 8 9 9 9 11 11 12 15 16 17 18 18 18 18 18 16 15 13 11
3 4 4 4 3 4 3 3 1 2 1 2 3 6 11 13 11 8 5 5 8 7 7 10 6 5 4 6 7 7 8 12 15 15 15 14 15 15 13 13 12 13 13 12 12 11 10 12 12 13 12 11 10 9 9 8 7 7 6 5 5 5 6 7 6 5 5 5 5 5 5 5 6 6 6 6 6 6 7 7 8 9 10 10 12 14 16 17 17 16 16 17 17 16 15 14 13
4 5 3 4 3 4 3 1 0 1 2 3 4 6 7 10 10 8 8 6 9 9 7 7 6 9 10 8 7 7 9 12 16 16 15 14 15 16 15 14 13 11 13 12 11 10 10 11 12 13 13 12 11 10 9 8 8 7 6 6 6 6 7 7 7 6 5 4 4 4 5 5 5 5 5 5 6 5 6 7 8 9 9 10 12 13 15 17 16 15 15 15 15 15 15 15 14
3 4 3 4 4 3 3 2 1 1 2 2 2 5 5 10 11 8 9 9 8 10 10 7 9 15 11 6 7 8 9 11 15 17 16 15 14 15 16 16 15 12 12 12 11 11 11 12 12 14 14 13 12 11 10 9 8 7 6 6 6 7 7 7 7 7 6 5 4 3 4 4 4 5 5 4 5 4 5 7 8 8 8 9 11 12 15 17 17 15 14 14 14 14 14 14 13
2 2 3 4 3 3 4 4 4 2 3 2 1 3 6 10 11 6 8 9 9 12 8 4 10 15 7 3 8 8 7 9 14 18 18 16 14 14 15 16 16 14 14 14 14 14 13 14 13 14 16 14 13 12 11 10 8 7 7 6 6 7 8 7 7 7 6 6 5 4 4 4 4 4 5 4 4 4 4 6 6 6 7 9 10 12 15 17 18 16 14 15 14 14 13 13 12
3 1 5 3 2 4 4 5 4 1 2 2 3 3 7 8 9 8 9 8 6 9 7 4 13 12 4 4 9 8 7 9 13 17 18 18 16 14 14 15 16 15 16 16 15 14 14 14 14 15 17 15 14 13 12 10 9 9 8 7 6 6 7 7 7 7 6 6 5 5 5 5 4 4 4 3 3 3 3 4 5 5 6 8 10 12 15 17 18 16 16 16 16 15 14 13 12
4 3 5 3 2 4 5 3 2 3 2 5 3 3 6 6 9 12 12 8 5 6 7 7 14 9 4 7 9 9 8 9 12 15 17 18 18 17 15 15 15 16 16 16 14 12 12 13 15 17 18 16 14 13 12 11 10 10 9 8 8 8 7 6 7 6 6 5 5 5 5 5 4 4 3 2 2 2 2 3 4 4 5 8 9 12 14 16 17 16 16 16 16 16 15 14 13
4 3 5 4 3 2 4 2 3 5 4 5 3 5 9 8 10 12 12 8 4 7 8 8 12 6 5 9 9 13 10 9 12 13 15 17 19 19 17 17 16 17 16 16 14 12 11 13 15 17 19 18 16 15 14 13 12 11 10 9 9 9 7 6 5 5 5 5 5 5 5 5 4 4 3 2 1 1 1 2 2 3 5 6 8 10 12 13 14 14 15 16 17 16 15 14 13
5 3 5 4 2 2 3 2 4 4 4 5 5 8 9 7 8 9 7 7 6 7 6 6 7 3 9 11 11 16 12 10 12 12 15 15 17 18 18 18 17 17 16 16 15 13 12 12 15 19 21 21 20 19 17 16 14 13 11 11 10 10 9 7 5 5 5 4 4 4 5 6 5 5 4 3 3 2 1 0 1 2 4 5 6 8 10 11 12 12 13 15 16 16 16 15 14
4 3 5 4 2 3 3 4 4 4 4 5 7 8 6 4 5 7 5 7 8 6 5 6 6 6 10 11 13 17 12 11 13 13 14 14 16 17 18 18 18 18 16 16 15 14 13 13 16 20 23 23 23 22 20 19 17 16 14 13 12 11 10 8 8 7 6 5 5 5 5 6 6 6 5 4 4 3 3 1 0 1 3 4 5 6 8 10 10 10 11 12 14 15 16 16 15
3 3 4 3 2 2 3 6 6 5 5 7 9 9 6 5 6 8 6 5 8 6 6 7 7 9 9 10 14 16 12 12 13 13 14 14 15 16 18 18 18 18 17 17 16 15 15 14 15 18 21 22 22 22 21 20 19 18 17 15 14 12 10 10 10 10 8 7 6 6 6 6 7 6 5 5 5 4 4 2 1 1 2 3 5 6 7 9 9 9 9 10 11 13 14 15 15
4 3 4 2 5 2 1 5 6 4 7 10 9 8 8 7 8 10 4 4 8 7 6 6 7 9 9 10 13 13 12 13 14 14 14 14 15 15 16 18 18 18 18 17 17 16 15 15 15 16 19 19 19 20 21 21 20 20 18 18 16 13 12 11 12 11 10 10 8 8 9 8 7 7 6 6 5 6 5 2 1 1 1 2 4 4 5 7 7 8 8 8 10 13 14 14 15
3 4 4 3 6 2 3 5 5 6 11 12 8 7 9 8 9 8 6 5 5 5 7 8 8 11 11 11 11 11 12 13 15 16 16 15 14 14 14 15 16 16 16 16 16 16 15 16 16 16 18 18 17 17 19 20 18 19 19 18 17 15 14 13 12 12 11 10 9 10 11 10 8 8 7 6 5 6 7 4 2 1 0 1 2 2 3 5 5 5 6 7 9 13 13 14 14
2 3 3 5 6 3 3 6 5 7 12 12 9 7 8 9 8 7 9 7 3 9 13 11 10 13 13 12 11 11 12 14 16 17 17 17 15 14 12 12 13 13 13 14 14 15 15 15 16 16 17 18 17 15 18 19 17 18 18 17 16 16 17 16 15 15 14 11 9 10 11 10 10 9 7 6 6 7 7 6 3 2 1 1 0 1 2 3 3 3 5 7 9 12 13 13 13
3 2 2 5 6 3 4 7 8 9 9 9 9 7 7 10 7 8 11 7 5 11 15 14 11 11 12 11 10 10 12 15 17 18 19 18 17 14 12 11 11 10 11 11 12 13 15 16 16 16 17 18 17 16 17 19 19 18 18 16 16 16 17 17 17 18 18 14 12 12 11 10 10 10 8 7 8 7 9 9 5 3 2 1 1 1 3 2 3 4 4 7 9 10 12 12 11
3 0 1 3 5 6 7 7 8 8 8 8 7 6 9 9 5 8 12 10 8 9 12 14 11 10 11 10 10 10 11 14 17 19 19 18 17 14 12 10 9 8 8 8 9 11 12 14 15 16 17 18 19 18 18 18 18 16 16 16 16 17 18 18 18 18 18 15 14 14 12 11 11 11 10 9 8 7 9 11 5 3 3 3 3 0 2 3 5 6 5 6 8 8 10 10 9
5 1 0 2 4 7 9 7 6 7 7 7 7 7 9 8 5 6 10 12 10 9 10 13 12 12 11 10 11 11 12 14 16 18 18 17 16 13 11 9 8 7 7 7 8 9 9 10 12 14 17 19 20 21 20 19 17 16 15 15 16 17 18 17 17 17 16 14 14 14 12 12 12 12 12 10 9 7 9 10 7 5 5 5 5 2 2 4 6 6 5 5 7 7 8 8 8
4 2 1 2 3 6 7 6 6 5 5 6 7 7 7 6 4 5 9 11 10 12 13 13 13 12 12 12 13 13 14 15 16 16 16 15 13 12 10 9 8 8 7 7 9 9 8 9 10 12 17 20 23 23 23 21 19 18 17 18 19 18 17 16 16 16 16 15 14 13 12 12 13 13 12 11 10 9 9 8 8 8 7 7 6 5 4 5 8 6 3 5 6 6 7 5 5
1 3 1 1 2 4 6 7 7 6 6 6 5 5 6 5 4 6 10 12 12 14 15 15 14 13 14 14 15 16 16 15 15 15 14 13 12 11 10 9 10 10 9 9 10 9 9 10 10 12 17 21 25 25 24 23 22 21 19 21 21 18 17 18 18 16 14 15 14 12 11 11 11 11 10 10 9 9 9 8 8 8 7 7 6 6 6 7 8 6 2 4 4 4 5 3 3
3 3 0 2 4 5 6 9 9 8 7 8 6 4 5 4 3 5 10 14 15 16 16 16 15 15 15 16 17 18 17 16 15 14 13 12 11 11 11 11 11 11 11 10 10 10 10 11 11 12 17 22 26 25 24 24 22 22 21 21 21 19 19 19 18 16 14 13 13 12 10 9 9 9 9 10 9 8 7 6 6 6 6 7 6 5 6 7 8 6 4 4 3 5 5 3 3
2 1 3 5 5 7 8 9 11 9 6 8 8 3 3 2 3 8 11 15 17 18 18 17 16 16 16 17 17 18 17 16 15 14 13 12 12 12 12 12 12 12 12 11 10 10 11 12 12 13 18 23 25 25 24 23 21 21 21 20 19 19 19 18 17 15 14 14 12 11 10 10 10 10 10 9 8 7 6 5 5 4 4 5 5 5 6 7 8 5 4 4 5 6 6 5 5
1 2 3 6 7 6 8 9 12 10 4 6 7 1 4 4 7 8 10 16 18 18 18 17 17 17 17 18 18 18 17 16 15 14 13 13 13 13 12 12 12 12 11 11 10 10 11 12 13 15 19 24 25 25 22 21 20 19 19 19 19 18 17 16 14 13 13 12 11 9 9 11 11 10 9 8 8 7 6 6 5 5 5 5 4 4 7 8 7 4 3 4 5 5 6 7 7
1 2 1 3 7 5 5 3 8 10 3 7 8 2 6 7 9 8 10 18 20 19 19 19 19 18 18 19 19 19 17 17 16 15 14 13 13 13 13 12 12 12 12 11 10 9 11 12 14 17 21 23 24 23 22 20 18 18 18 18 16 16 16 15 12 12 12 11 11 10 9 10 10 9 8 8 7 7 7 6 6 6 6 6 5 7 10 9 6 4 3 4 5 5 6 7 7
0 1 2 2 2 4 6 1 9 8 3 9 9 1 7 8 8 9 14 19 21 21 22 21 20 20 20 21 20 20 18 18 17 16 15 14 14 14 13 13 13 13 13 12 10 9 11 13 15 18 21 22 23 21 21 20 19 18 19 19 17 14 14 14 13 13 13 13 12 12 11 10 9 8 9 9 8 7 7 6 6 7 7 7 8 9 9 8 6 5 4 5 6 7 7 7 6
2 1 3 3 2 5 9 2 13 9 3 9 8 1 7 9 8 10 17 21 22 22 22 23 23 22 22 22 22 20 19 19 18 17 17 15 15 14 14 14 14 14 13 12 10 9 12 15 15 16 17 19 21 21 19 21 21 19 18 19 19 17 15 14 14 14 14 14 14 14 13 12 12 12 12 10 8 7 7 7 7 7 8 8 8 8 7 7 6 6 6 7 7 7 7 6 5
3 1 3 3 2 3 6 2 9 8 5 5 5 2 4 5 4 10 19 22 22 21 22 24 25 24 24 24 23 22 21 21 20 19 18 17 16 15 15 15 14 14 13 12 11 10 13 15 16 16 15 16 18 19 19 20 19 18 19 19 18 18 17 14 13 13 13 13 13 13 13 12 12 12 11 9 8 8 7 6 7 7 7 6 6 6 6 6 6 6 6 6 5 4 3 3 3
3 0 2 4 3 2 3 4 4 6 6 5 5 4 7 6 2 11 20 22 22 22 24 26 26 26 26 25 24 24 24 23 22 21 19 18 17 16 15 15 14 13 12 12 11 11 14 15 17 17 17 18 19 20 20 19 18 17 19 20 17 16 15 13 12 12 11 11 10 10 10 9 9 9 9 8 8 8 6 5 6 6 5 4 4 4 4 4 4 3 3 2 2 2 2 1 2
3 3 2 3 3 3 4 4 3 7 4 5 6 5 11 11 6 12 19 21 23 25 25 25 26 27 27 27 27 26 26 25 23 22 20 18 17 17 16 14 13 13 12 12 13 14 16 15 16 18 18 20 21 19 18 19 21 19 17 17 14 13 13 12 12 11 10 10 9 9 8 8 7 7 6 6 7 7 6 6 6 6 5 4 4 4 4 3 1 0 2 3 4 5 5 5 4
6 6 5 4 4 4 5 5 6 9 4 5 8 8 11 13 10 12 19 23 25 26 23 21 24 27 28 29 29 29 28 26 24 22 19 18 18 17 16 14 12 12 11 13 16 17 18 17 18 20 19 19 20 19 19 20 19 18 18 17 15 13 14 13 12 12 11 10 9 9 9 8 7 6 7 7 7 7 7 7 7 7 6 5 5 4 3 2 2 3 4 6 7 8 10 10 9
5 4 3 4 4 5 5 5 6 7 5 5 9 9 11 12 11 12 16 20 22 23 22 22 25 28 32 33 32 32 30 27 25 22 20 18 18 17 15 14 13 13 13 14 17 18 19 20 21 23 21 18 18 19 21 21 17 17 19 19 18 17 16 15 13 12 11 10 10 10 10 10 9 9 9 8 8 8 9 8 8 7 6 5 4 4 5 5 6 7 8 9 9 8 11 13 11
2 2 3 5 4 6 7 4 5 3 4 6 6 7 11 11 11 13 12 13 19 27 26 27 30 31 34 35 34 33 30 28 26 24 21 19 18 18 16 15 14 15 15 15 17 19 20 19 21 24 23 19 17 19 20 19 16 18 20 19 19 17 16 15 13 12 12 12 12 12 12 12 11 11 10 10 9 9 8 8 8 7 7 6 6 7 9 8 9 9 8 8 8 9 12 13 10
4 2 2 5 4 4 7 5 3 1 4 5 4 4 9 11 10 12 13 16 22 31 33 34 35 35 36 36 36 35 32 30 29 26 23 20 20 19 17 16 16 16 16 16 17 20 21 20 21 23 23 20 20 20 19 19 20 20 19 18 18 17 17 15 14 15 14 14 14 14 13 13 12 12 11 9 9 9 8 9 10 10 11 9 8 9 9 8 8 8 6 6 7 8 10 11 9
5 4 3 5 4 2 4 5 3 1 2 3 3 4 7 8 8 10 18 23 23 26 31 35 37 36 37 38 38 38 37 35 33 29 26 23 22 21 19 18 19 18 19 18 18 21 23 22 22 23 21 20 21 20 19 21 23 22 20 19 18 17 17 17 16 17 16 15 15 14 13 13 12 12 12 11 11 12 12 12 12 11 11 10 8 7 6 6 6 6 6 7 6 5 7 8 8
5 6 6 6 5 6 6 4 3 3 4 2 2 6 6 7 10 11 11 14 18 20 22 29 36 36 35 34 37 39 39 38 35 32 28 25 24 24 21 21 21 21 21 21 20 22 24 23 24 25 23 21 20 19 19 20 21 22 21 21 20 19 19 19 19 19 18 16 16 16 16 16 15 16 16 15 14 14 13 12 11 9 9 8 6 5 5 5 6 6 7 8 7 7 8 8 7
5 6 10 10 8 8 5 1 4 4 5 4 2 4 6 5 9 11 4 3 10 15 16 25 33 33 33 33 36 39 38 37 35 32 29 27 26 25 23 24 25 23 23 23 22 22 24 24 24 24 23 21 20 20 20 20 21 22 21 22 22 22 23 22 20 20 20 19 19 20 21 20 19 18 18 16 14 13 11 10 9 7 7 6 5 5 5 7 7 8 9 9 9 10 9 8 8
4 6 10 11 8 7 5 3 2 1 4 4 2 2 7 6 6 9 4 4 9 10 11 21 28 30 34 36 37 39 39 38 35 32 29 27 27 27 26 27 28 26 26 27 24 23 24 23 23 22 21 21 21 23 23 21 22 22 20 20 21 22 24 24 21 21 22 22 23 23 23 21 19 17 16 15 13 11 10 9 8 7 6 6 7 6 7 8 8 9 10 10 10 11 9 9 10
4 5 7 9 8 7 6 6 4 3 3 4 3 3 5 8 6 6 6 7 9 10 11 17 23 28 33 36 37 39 40 39 37 34 30 28 28 29 28 28 29 28 29 30 26 26 27 25 24 24 23 21 22 23 23 21 21 20 20 21 21 21 22 24 25 24 25 25 25 23 22 21 19 16 15 13 12 10 9 8 7 6 6 7 7 7 7 9 9 10 10 11 11 11 12 13 13
6 3 6 7 6 5 4 5 3 1 2 4 4 1 3 9 5 1 2 7 9 13 15 17 21 27 32 34 35 36 38 38 38 35 32 30 30 30 29 28 29 29 31 31 28 28 29 26 25 26 24 23 24 23 22 21 19 19 20 22 23 23 24 26 27 26 26 25 23 23 21 20 18 16 14 12 11 9 8 7 7 6 7 7 7 8 9 10 10 11 12 13 14 14 15 16 15
4 6 7 6 5 5 5 4 3 2 1 6 6 3 4 8 3 2 1 4 9 12 13 13 17 26 31 33 33 34 36 38 37 35 32 30 30 30 30 29 30 31 31 31 28 29 28 25 26 28 26 25 25 23 23 21 20 19 21 22 24 27 28 28 28 27 26 24 23 22 20 19 17 15 13 11 10 9 7 7 7 6 7 8 8 10 11 11 12 13 15 15 16 16 16 16 16
8 7 6 7 6 5 4 3 4 1 4 6 9 9 6 7 2 4 3 4 8 9 9 9 11 20 27 31 33 35 36 38 37 35 32 29 29 31 31 32 33 33 31 31 31 31 29 27 28 28 26 26 25 24 23 22 21 20 21 23 25 27 27 27 28 27 26 24 22 21 20 18 16 13 12 10 9 8 7 7 7 7 8 9 10 11 12 13 14 15 16 16 15 16 15 15 15
8 5 5 4 4 4 4 4 4 2 6 5 8 10 9 9 5 4 5 5 5 6 7 9 8 14 23 29 33 35 36 38 38 36 33 31 32 33 34 34 35 34 32 32 34 33 31 29 28 27 27 27 26 25 24 23 22 22 22 25 26 25 24 24 25 25 25 23 21 19 18 16 14 13 11 10 9 9 8 7 7 8 9 10 12 13 13 14 15 15 15 14 14 14 14 14 14
4 5 6 4 2 2 2 3 0 4 6 4 4 5 5 10 7 5 8 9 8 9 12 12 10 13 21 27 32 35 37 38 38 37 35 34 35 37 37 37 37 36 34 34 35 35 32 30 28 28 28 28 27 26 25 24 24 24 25 27 26 24 23 23 23 22 22 21 18 16 15 14 13 12 11 10 9 9 8 8 8 9 10 11 12 13 13 13 14 13 13 13 13 12 12 12 12
6 6 7 5 2 1 3 4 2 4 5 4 1 3 3 6 4 9 13 12 11 12 16 17 15 14 18 23 30 34 37 38 38 38 37 36 37 38 39 39 39 38 37 36 36 35 33 31 30 30 29 29 27 26 26 25 25 26 27 27 25 24 23 23 22 20 20 19 16 15 13 13 12 11 11 10 9 9 8 8 9 9 10 11 11 12 12 12 12 11 11 11 11 11 11 11 11
7 5 6 6 6 5 4 4 4 4 3 4 1 2 4 2 2 7 8 8 10 15 19 19 16 16 16 20 27 32 36 38 38 38 37 36 37 38 39 40 40 39 39 38 36 34 33 33 32 32 31 30 28 27 27 28 28 28 28 27 25 24 23 23 21 19 19 17 16 14 13 13 12 11 11 9 9 9 8 9 9 8 9 10 10 10 10 10 10 10 10 10 10 10 10 10 10
4 3 4 5 6 6 2 3 5 3 2 3 3 4 5 4 5 7 5 7 8 14 18 17 17 16 15 19 27 32 36 38 39 39 38 37 37 38 39 41 41 41 41 40 38 36 35 35 34 33 32 30 28 28 29 29 30 30 29 28 26 25 24 23 22 20 18 17 15 14 14 13 12 11 10 9 8 9 8 7 7 7 8 8 8 8 9 9 9 9 9 9 9 9 9 9 9
2 3 4 4 4 5 2 3 1 3 3 4 3 6 6 3 7 7 6 8 8 8 12 14 15 14 15 21 27 33 36 39 40 41 40 39 38 38 40 42 42 42 42 41 40 38 37 36 36 34 33 31 30 30 31 31 32 31 30 29 27 25 24 23 21 20 19 17 16 15 14 14 13 11 10 8 8 7 7 6 5 5 6 7 7 7 7 8 8 9 8 8 7 7 7 7 7
5 4 6 2 2 2 2 2 2 2 4 5 3 7 6 2 6 3 2 6 10 8 9 11 11 13 18 23 28 32 35 38 39 40 39 39 38 39 41 42 43 43 43 42 41 39 37 36 36 35 34 33 32 32 32 33 33 33 32 30 28 26 24 23 20 19 19 18 18 17 15 14 13 11 10 8 7 6 6 5 5 4 5 5 5 6 7 7 7 7 7 7 6 6 7 7 8
4 4 6 4 1 1 2 2 2 1 3 5 2 5 6 6 6 1 3 9 12 11 10 7 10 16 22 24 27 31 33 36 39 40 40 40 39 39 41 43 43 43 43 42 41 40 38 37 36 35 34 34 34 34 34 34 34 33 32 30 29 27 25 23 21 20 19 18 18 18 16 15 14 12 10 9 8 7 6 5 5 4 3 4 4 5 6 6 6 6 6 6 6 7 7 7 8
4 3 4 2 2 3 3 3 3 3 3 4 3 3 5 7 7 6 10 12 12 12 10 8 14 22 24 25 28 31 35 37 39 40 41 41 40 39 41 43 44 44 43 42 41 41 39 38 37 36 35 35 35 35 35 36 35 34 32 31 30 28 26 24 22 21 20 19 19 18 17 16 15 13 12 10 9 8 7 6 5 4 3 3 3 4 4 5 5 5 5 6 6 7 7 8 8
4 4 5 3 1 2 1 1 2 4 2 3 3 7 8 4 5 9 12 12 11 12 10 10 19 24 24 26 30 33 36 37 38 40 41 41 41 40 41 43 43 43 43 42 42 42 40 39 38 38 38 37 37 37 37 36 36 35 34 32 30 29 27 25 24 23 21 21 20 19 18 17 16 14 12 11 10 9 8 7 6 5 3 2 2 3 4 4 5 5 5 6 6 7 7 8 8
7 8 9 8 6 4 2 3 2 3 3 4 3 8 11 4 3 4 7 7 9 12 12 12 18 22 24 29 32 33 35 36 37 38 39 40 41 41 42 43 44 44 45 45 44 43 41 41 40 40 40 39 38 39 38 37 36 35 34 32 31 29 28 27 26 25 24 23 22 21 20 18 17 15 14 13 12 11 10 9 7 5 3 2 0 2 3 4 4 5 5 6 6 6 7 7 8
Wind_Direction
226 189 137 119 140 168 135 122 99 21 68 87 34 85 84 231 165 87 24 11 72 44 69 79 86 104 104 104 110 90 62 63 164 122 144 161 162 169 153 165 168 152 159 166 168 166 162 155 146 142 140 135 126 118 118 114 106 99 94 92 92 92 94 98 115 133 128 114 113 110 102 93 83 75 71 68 64 63 60 60 62 65 67 66 59 49 42 38 36 31 27 22 19 20 27 39 53
156 140 137 145 122 145 162 77 91 6 52 72 336 118 161 336 60 120 173 128 116 99 95 94 91 95 99 102 98 77 56 59 89 109 127 143 159 159 141 145 143 142 155 168 170 166 167 160 149 145 144 141 130 122 118 113 105 96 90 87 87 88 91 94 106 126 129 119 114 111 107 99 92 83 78 71 65 65 61 59 61 63 60 55 48 41 35 28 24 19 15 10 8 9 15 25 39
119 135 146 162 63 88 122 61 93 80 71 97 298 271 117 75 128 191 197 119 115 116 111 104 89 82 91 87 62 64 75 78 91 106 123 143 162 157 146 135 131 133 144 166 169 166 170 166 156 146 145 142 132 127 120 116 109 101 94 88 89 91 96 99 105 119 125 122 115 110 109 105 100 92 85 78 70 64 56 51 54 60 56 46 38 34 27 20 16 13 13 13 14 13 17 31 37
111 123 116 132 70 82 77 55 116 115 110 140 175 275 243 143 173 212 167 87 94 123 126 108 77 66 86 87 71 81 93 91 94 117 133 145 162 164 149 138 137 136 134 162 167 163 170 170 164 152 148 146 140 136 126 121 115 109 101 91 89 95 103 107 113 122 126 127 120 113 109 106 104 98 90 81 76 69 54 47 51 56 50 38 29 26 18 14 15 14 17 20 24 28 34 55 70
101 101 62 16 51 76 76 73 98 99 155 170 140 256 238 177 187 206 134 83 86 113 121 107 85 88 86 79 87 84 82 105 101 142 149 151 164 168 151 142 141 138 136 158 165 163 170 172 169 161 156 154 150 145 135 128 123 115 109 101 88 93 106 113 121 130 134 134 127 120 112 105 100 97 91 83 81 73 57 53 56 52 42 33 26 19 14 14 17 17 20 23 28 38 49 65 82
105 98 46 47 72 83 84 76 83 80 196 164 139 221 220 189 175 161 116 87 83 101 123 121 117 108 85 69 69 71 101 118 121 144 149 153 163 168 158 146 140 137 136 152 163 164 170 174 174 172 166 162 160 156 147 140 135 127 122 120 105 101 108 117 128 135 138 139 133 128 116 106 99 92 89 90 89 76 67 65 59 52 44 35 26 18 15 16 17 18 20 25 30 41 52 62 76
127 115 49 68 67 56 87 102 124 120 202 166 154 182 207 190 155 136 114 96 78 78 112 127 125 109 86 85 71 64 99 128 136 142 145 152 160 168 164 149 142 141 137 144 157 162 171 178 177 178 175 171 170 166 161 155 151 146 143 135 119 110 111 121 133 140 144 144 139 132 119 109 102 91 89 94 91 78 74 75 66 56 47 35 26 20 18 16 15 17 20 24 30 40 49 55 64
108 95 64 81 49 37 94 100 140 166 148 172 166 169 184 173 149 132 125 117 92 84 115 131 127 101 80 159 105 82 112 134 141 145 145 150 159 168 168 156 151 148 145 143 153 165 176 182 181 180 179 181 181 175 172 168 166 164 159 150 131 119 116 123 131 141 144 147 146 135 124 112 103 94 94 97 91 80 74 74 68 55 42 34 26 22 19 16 14 16 20 24 29 37 44 48 50
91 73 61 77 70 48 73 64 96 173 164 162 156 166 168 161 155 135 122 101 102 96 125 161 149 101 144 131 118 117 118 129 140 146 144 147 156 167 170 166 167 157 153 153 157 169 177 185 186 183 180 184 188 185 184 180 181 179 170 161 145 132 126 128 130 136 137 142 147 141 138 122 111 104 104 104 97 86 73 67 62 50 38 32 25 22 19 17 17 19 24 27 29 35 41 43 43
77 65 85 80 80 69 70 66 122 162 205 192 159 149 149 158 160 135 121 106 104 86 92 151 135 125 141 122 122 136 125 128 140 146 146 150 153 165 171 169 177 166 160 164 168 177 182 185 187 188 186 185 190 192 191 189 192 187 174 165 151 142 136 135 135 139 136 135 142 150 152 133 121 115 109 103 98 90 73 58 49 44 38 30 25 24 21 20 22 26 31 33 33 36 41 43 43
63 48 100 83 78 112 153 174 199 219 253 276 142 110 98 137 137 121 119 111 106 96 97 115 120 130 128 119 141 143 138 135 144 149 149 157 161 166 173 174 181 173 165 172 179 190 191 188 187 191 192 190 193 196 195 193 196 190 177 171 158 151 147 145 145 147 147 144 144 155 160 141 128 117 104 91 87 84 64 48 43 43 38 28 24 25 23 23 26 33 40 41 41 41 45 47 46
74 360 77 92 111 160 176 154 175 225 301 324 145 99 89 119 118 119 126 117 113 100 94 110 145 143 115 120 150 137 147 151 153 155 153 163 173 173 178 182 184 179 175 182 189 198 200 195 191 193 195 195 196 199 200 196 197 195 187 186 173 161 156 153 153 154 153 154 155 159 161 147 138 123 107 94 88 86 62 46 44 46 41 29 25 25 23 23 27 35 43 46 48 47 50 52 51
110 165 82 94 135 140 137 137 181 143 347 249 196 118 100 109 118 142 130 111 110 98 82 118 157 154 110 150 152 140 159 171 158 157 160 167 178 184 187 188 189 189 188 193 197 202 204 200 197 196 195 195 199 203 204 200 199 201 199 196 187 179 170 163 164 165 162 161 163 164 162 158 156 140 125 122 113 101 66 48 49 49 42 31 27 26 25 25 27 35 42 44 47 49 51 51 50
104 147 97 112 89 115 133 128 187 136 226 251 226 136 105 100 126 147 135 100 58 98 102 131 163 164 130 154 164 165 168 180 163 155 164 169 181 190 195 196 196 198 199 203 204 204 200 199 200 198 195 194 200 206 207 207 202 203 207 203 200 200 190 178 175 172 172 173 176 174 169 169 168 160 158 170 147 113 64 47 51 45 35 32 31 28 29 29 30 37 44 45 46 48 50 50 48
94 111 91 105 65 99 149 146 165 148 208 240 197 136 110 108 129 140 138 121 78 122 126 135 165 182 173 170 182 182 177 182 171 161 165 170 182 188 195 201 203 204 205 208 209 206 195 193 196 194 193 193 199 204 206 208 207 206 207 211 212 209 201 190 187 182 180 185 188 188 189 190 183 182 187 203 209 160 61 44 53 46 34 36 33 30 33 35 34 41 49 50 48 47 48 50 49
76 89 78 81 81 138 160 144 133 134 222 222 176 144 115 112 129 125 125 142 137 143 156 153 163 182 176 177 178 179 180 184 179 174 173 175 184 187 194 199 205 209 209 210 211 211 205 197 192 191 192 194 200 203 205 206 207 206 203 212 211 206 207 198 195 200 198 201 205 200 202 207 206 201 195 209 226 223 222 107 60 49 38 36 34 32 37 40 41 46 52 53 49 46 43 43 44
64 75 65 70 113 151 168 165 164 165 215 220 185 167 137 122 126 121 121 150 148 136 144 146 153 153 166 178 176 177 182 184 184 184 183 184 188 191 195 198 203 208 212 214 214 215 215 208 196 195 197 200 203 204 207 207 208 205 201 207 207 207 214 212 205 203 205 208 216 218 210 211 218 217 208 217 229 230 229 203 127 38 34 31 33 37 38 39 43 48 54 54 48 45 42 39 37
63 94 81 101 154 161 183 185 193 168 168 191 188 182 157 141 136 135 128 134 139 131 127 132 149 159 168 174 172 180 184 183 190 194 195 195 194 196 198 198 202 206 211 214 216 217 217 216 206 201 203 207 209 209 211 210 210 209 206 207 209 213 216 221 213 199 202 205 210 218 214 213 216 222 220 224 235 232 224 199 203 359 27 29 31 43 42 36 37 45 57 57 50 49 46 42 37
64 97 91 164 198 193 205 177 189 171 160 168 169 177 171 160 151 150 159 148 140 132 126 138 160 170 176 174 173 185 189 188 194 200 206 206 202 203 202 201 201 204 209 211 216 218 218 218 213 207 205 209 212 210 212 213 214 213 212 211 212 214 212 217 213 201 203 203 208 218 215 212 214 225 224 223 230 215 206 203 247 320 34 38 35 58 53 40 40 45 54 51 56 59 50 46 43
47 84 88 231 204 154 63 122 172 184 161 150 144 164 169 163 159 166 178 166 171 182 169 173 187 189 187 181 179 186 192 194 197 203 211 213 211 212 209 203 201 202 205 208 212 217 220 220 217 213 207 208 209 207 210 211 214 216 216 215 213 212 214 216 210 204 204 203 209 217 216 212 210 218 215 217 225 208 208 224 257 258 154 46 33 68 50 41 51 54 51 35 49 61 52 50 50
34 89 138 204 178 130 93 107 122 155 153 147 140 140 154 165 174 183 163 142 244 232 207 209 214 207 199 189 185 186 193 198 200 204 209 215 218 219 217 212 209 208 207 208 211 214 218 221 221 217 211 209 207 203 206 202 202 213 214 214 213 211 216 219 213 208 211 216 216 215 218 216 211 211 211 221 220 208 215 224 230 228 198 149 62 42 26 28 43 52 48 26 29 50 52 54 57
61 47 162 168 160 151 146 125 119 140 149 148 144 139 160 174 185 190 174 166 239 235 224 225 224 215 207 198 194 190 192 199 202 205 209 214 219 222 224 224 221 217 215 213 213 217 218 221 222 221 216 211 206 203 206 202 202 210 211 211 211 210 214 218 217 218 222 226 221 217 221 220 215 211 213 218 207 210 223 216 201 206 200 161 188 356 1 349 349 351 22 29 16 26 45 55 62
99 351 33 134 164 159 156 150 141 152 159 160 164 168 171 173 193 203 199 213 236 239 228 220 212 203 203 202 203 200 196 199 201 204 209 215 220 225 225 223 221 215 215 215 216 222 222 221 221 221 219 212 205 204 207 208 209 212 208 206 210 210 212 216 217 220 224 224 220 220 222 219 217 214 214 212 203 208 213 204 196 204 191 168 185 357 347 309 329 327 338 22 8 4 35 55 61
105 152 341 99 146 153 159 171 170 174 177 178 172 170 176 180 197 214 218 227 230 225 212 206 202 198 205 211 213 210 200 198 198 200 204 210 216 219 217 215 217 218 218 223 228 232 233 228 220 217 217 210 203 204 208 209 208 205 198 200 212 213 209 211 211 211 215 218 218 220 219 216 216 214 213 212 210 205 201 205 215 214 197 192 210 249 271 275 298 299 309 352 351 353 24 45 55
80 143 216 109 147 164 169 187 197 200 196 183 174 182 197 194 200 228 227 222 211 201 197 198 201 206 215 221 222 214 204 200 197 196 197 202 206 210 216 221 226 233 233 235 243 245 243 238 225 214 211 206 202 204 209 209 206 203 193 193 210 216 209 208 209 207 210 213 214 217 216 213 212 213 216 215 214 208 206 212 217 219 222 227 239 250 246 264 264 248 280 332 332 344 13 30 42
112 140 159 120 177 186 191 208 216 223 219 199 195 219 225 211 218 251 236 217 203 196 195 200 207 214 219 222 221 212 206 204 201 200 199 203 209 216 224 232 240 245 244 244 248 249 247 243 233 214 207 203 201 202 207 208 207 205 196 195 205 209 206 211 213 208 209 211 208 210 210 207 208 213 220 217 211 206 205 209 211 219 231 238 246 242 246 260 240 218 276 318 317 328 347 354 360
144 124 223 254 244 245 226 225 229 228 228 217 204 222 243 220 200 242 229 207 200 197 198 204 211 217 220 218 213 208 206 207 208 206 206 211 218 226 233 239 245 248 248 248 247 247 246 243 235 217 205 200 197 199 204 204 204 205 201 200 205 205 205 211 215 206 202 205 200 201 205 207 214 215 213 209 206 206 211 218 217 216 225 234 239 244 263 259 221 219 281 277 258 296 317 309 307
133 63 308 284 289 277 245 230 230 217 223 225 204 216 272 197 192 239 223 201 201 201 202 207 211 215 217 213 208 207 207 208 211 211 212 218 223 230 237 241 245 248 249 247 245 246 244 239 230 215 201 196 194 196 201 202 203 204 202 203 205 208 208 209 216 210 201 203 201 204 211 213 217 211 205 209 213 218 227 233 226 218 224 229 236 257 268 244 215 223 266 259 269 292 301 292 285
115 56 317 301 345 315 244 233 222 201 205 213 184 276 292 215 220 239 216 199 199 201 205 207 209 214 214 209 206 207 210 211 213 216 218 221 228 234 238 241 244 246 247 249 248 243 239 232 220 206 196 194 192 193 199 201 200 201 203 205 209 213 210 208 215 213 207 210 209 213 218 215 213 211 214 221 226 235 238 235 230 217 210 216 231 246 238 229 227 238 248 258 274 286 291 288 287
249 57 43 308 357 333 261 244 200 185 197 180 158 269 274 245 238 219 198 197 194 197 206 208 208 212 212 209 209 209 211 215 217 220 223 226 232 237 240 243 247 252 258 261 257 241 231 222 210 199 194 193 191 193 197 196 199 200 198 197 200 208 213 216 213 204 209 213 212 215 218 215 212 214 223 225 230 243 240 234 228 210 203 213 221 224 222 219 223 235 244 260 264 264 273 275 280
289 7 23 356 357 283 298 338 163 164 214 177 147 241 262 268 256 205 195 199 197 199 204 208 210 212 213 211 211 213 214 216 221 224 227 230 234 238 244 248 254 261 267 268 261 239 220 208 201 194 191 190 188 192 196 197 202 199 198 201 201 203 209 217 212 205 211 212 211 216 219 219 216 222 231 231 233 237 234 230 222 203 193 201 207 213 219 211 206 228 248 258 255 248 250 253 263
32 30 311 334 167 260 309 243 170 165 199 180 151 234 264 277 266 204 193 198 200 205 207 209 212 213 214 214 214 217 218 220 222 226 229 231 235 239 244 249 255 259 262 263 253 230 207 199 192 185 188 192 189 192 194 199 204 199 200 203 202 203 205 211 212 210 211 209 211 213 216 220 222 227 227 222 221 225 228 221 212 203 194 198 204 212 222 220 221 238 246 247 247 244 245 252 261
358 117 247 271 185 267 320 278 195 172 139 186 201 229 260 290 268 195 191 196 201 206 211 212 214 216 215 216 217 218 221 223 224 227 229 230 232 237 241 247 251 253 253 248 237 216 196 189 182 175 182 187 187 191 192 195 201 201 203 202 203 209 210 211 209 206 205 204 207 209 213 218 220 220 212 205 208 214 218 205 196 196 196 200 209 221 232 237 243 250 251 247 251 259 265 273 269
315 310 233 245 205 220 292 304 244 168 140 200 227 239 247 271 255 187 192 198 202 209 216 216 215 216 217 219 220 221 224 224 225 227 227 227 230 234 238 243 245 246 241 229 217 197 184 181 180 179 181 183 187 190 192 199 200 198 202 203 206 208 205 204 198 198 200 201 204 206 210 211 208 204 198 201 206 206 200 184 180 183 188 196 204 213 219 227 239 251 264 276 317 351 354 311 250
205 195 211 256 240 222 242 277 223 166 166 206 201 240 253 265 262 204 202 202 207 217 221 219 217 216 218 222 222 223 225 225 226 226 225 224 226 231 234 238 238 236 229 213 196 182 179 180 178 178 178 181 188 188 190 198 197 195 198 196 191 187 192 194 190 193 195 195 193 190 190 188 188 188 183 183 186 189 185 180 185 183 183 187 188 189 185 183 187 303 349 12 25 47 69 83 102
173 178 168 195 232 250 233 253 228 177 174 221 205 223 243 254 255 226 213 208 214 226 228 224 222 220 220 223 225 225 226 226 224 223 220 219 223 226 230 234 232 227 217 199 188 181 180 182 175 173 175 181 189 194 191 190 192 197 200 200 195 188 190 187 182 185 183 182 180 175 173 170 172 171 163 165 174 183 183 182 183 173 164 163 168 171 158 136 101 69 59 59 55 66 78 79 84
148 144 162 202 222 265 253 266 262 180 167 241 220 222 242 246 253 249 225 211 218 229 231 229 225 223 223 223 225 226 226 226 224 221 217 215 219 222 226 229 225 217 203 192 190 185 181 181 177 176 176 177 185 192 189 186 190 192 188 188 188 181 181 182 180 180 179 178 172 166 164 162 162 159 157 164 171 175 173 168 165 155 148 158 168 151 125 113 103 94 93 91 79 72 75 74 78
184 168 227 253 225 254 256 254 281 181 173 260 241 229 253 250 252 259 229 199 218 225 224 228 227 226 226 224 225 225 225 224 222 221 216 214 216 218 222 220 216 212 200 194 192 187 182 178 179 183 181 176 180 185 185 186 187 183 177 177 179 178 177 182 185 182 177 172 164 159 159 157 158 159 158 162 162 161 160 153 148 142 135 138 140 124 112 107 104 102 104 103 90 77 80 82 85
231 217 248 267 239 267 278 271 298 163 178 262 272 239 258 258 253 252 225 208 225 228 225 230 229 226 224 223 223 223 221 220 220 220 217 214 213 216 217 209 206 207 200 195 189 186 184 176 176 182 180 180 183 184 188 191 188 184 184 185 188 188 183 183 186 178 171 167 161 157 158 156 159 161 156 156 156 148 147 145 139 133 123 114 113 112 108 103 97 93 85 78 74 73 84 88 85
224 214 218 252 242 233 276 284 301 290 223 255 286 281 269 266 264 252 234 227 235 238 234 236 234 230 229 227 225 223 220 218 217 217 215 211 210 213 211 203 199 198 197 194 186 184 184 180 183 182 180 183 179 176 180 184 182 181 183 185 188 192 188 183 179 170 166 165 160 156 155 152 154 154 145 144 145 138 136 133 127 123 116 107 104 105 101 90 75 67 60 53 53 58 67 70 69
235 212 207 229 232 214 235 282 318 329 329 333 331 305 278 250 250 254 242 228 239 244 236 236 236 234 235 231 226 224 222 221 219 216 215 212 211 212 205 199 198 196 196 194 186 184 184 184 188 184 180 182 180 180 184 188 188 184 184 184 186 190 183 176 175 167 162 162 158 150 145 141 143 141 137 136 135 131 127 122 118 117 114 109 105 97 83 71 61 54 50 41 34 36 41 45 50
257 224 208 216 219 218 227 340 19 359 326 326 15 298 279 257 244 254 263 201 238 243 231 233 235 231 231 229 225 222 221 222 223 221 220 215 212 210 202 197 199 197 194 191 185 185 184 180 180 180 181 187 192 195 195 199 202 199 200 197 191 187 174 169 173 166 159 157 151 144 139 137 138 137 133 132 129 128 125 122 120 118 116 112 99 84 73 67 57 51 46 36 32 37 35 29 33
256 236 204 204 200 196 192 148 98 272 264 295 55 186 271 283 240 238 226 204 244 247 237 238 235 228 225 226 225 221 218 217 218 219 220 217 212 209 204 199 199 197 190 188 186 188 189 185 184 187 191 194 194 194 195 199 202 204 208 201 190 185 173 165 165 161 155 152 146 142 140 138 138 136 133 132 129 129 127 124 121 114 108 94 80 68 61 57 49 48 48 41 44 48 41 34 43
240 245 180 178 183 192 194 169 185 228 248 316 11 121 269 279 252 226 189 199 253 260 253 248 236 228 225 224 224 221 218 215 213 213 214 216 214 210 207 201 199 197 192 191 193 195 196 197 199 195 193 194 192 193 196 199 203 205 201 192 185 184 174 160 156 155 152 150 146 143 142 140 139 138 137 135 133 129 126 119 109 96 84 74 66 54 51 52 49 50 51 47 48 47 43 42 47
244 215 136 148 163 169 152 140 175 304 21 296 300 111 263 271 265 329 177 202 247 255 249 248 236 229 226 223 222 219 217 216 215 215 215 216 214 210 208 202 198 197 194 195 197 196 194 196 200 197 194 196 195 195 198 198 201 200 192 188 181 175 169 157 153 154 152 151 149 146 145 144 143 142 139 137 132 125 116 103 90 77 69 64 58 50 50 52 50 48 46 44 41 38 38 38 37
202 132 93 76 76 80 78 105 122 40 337 240 238 176 242 268 229 98 62 205 233 245 247 251 239 231 227 222 219 217 215 214 215 216 217 218 213 208 206 202 199 197 196 197 197 195 196 196 197 197 195 196 196 196 197 194 194 193 189 188 179 169 165 158 156 157 154 154 154 150 150 148 146 145 140 134 125 115 104 92 83 75 68 63 57 53 51 49 46 44 40 38 35 32 32 31 28
132 105 65 50 34 40 46 51 83 31 266 227 209 189 206 273 254 159 189 205 217 231 248 262 243 228 225 221 217 215 213 212 212 212 214 215 211 206 204 202 198 198 199 199 198 196 198 199 199 198 196 197 198 197 195 191 190 190 188 186 178 170 166 162 161 160 157 159 159 154 152 150 147 144 138 131 122 110 102 95 87 76 68 63 57 52 49 46 43 40 37 35 32 29 29 26 24
121 90 82 76 349 12 22 356 50 236 256 224 207 192 192 241 256 212 239 259 235 219 235 257 243 218 218 218 217 215 213 211 209 208 209 208 205 202 201 201 199 199 200 198 200 199 197 199 200 199 198 198 198 195 192 189 185 185 185 182 178 174 170 167 166 164 161 163 163 157 155 153 149 145 138 133 125 114 106 98 85 73 66 61 55 50 47 44 41 38 35 32 29 27 27 25 22
118 98 111 118 314 3 343 305 63 231 260 270 217 179 205 243 246 235 257 270 249 224 230 248 255 233 221 218 217 214 211 209 207 206 207 206 204 201 200 200 199 200 199 197 202 200 195 198 202 201 200 198 196 194 189 185 182 181 181 180 179 176 172 170 169 166 163 165 165 161 158 156 153 148 141 136 129 118 108 94 80 71 64 57 53 49 45 43 40 36 33 30 28 27 27 25 19
170 144 145 161 168 175 250 261 271 258 269 302 221 164 250 277 259 227 235 249 248 244 247 253 261 255 238 227 218 212 208 208 207 207 206 206 204 202 201 199 199 200 198 198 201 198 195 199 202 202 202 198 195 192 187 182 180 179 180 181 180 177 173 171 171 168 164 164 165 163 160 159 157 151 145 140 129 117 105 89 78 68 62 56 53 49 44 43 39 34 31 28 27 24 23 20 13
190 164 151 172 168 173 212 214 229 254 280 298 261 179 206 215 260 239 243 269 261 254 257 259 265 264 250 231 214 207 207 207 208 208 207 207 206 204 202 201 201 200 199 199 199 197 198 200 201 201 202 198 193 190 186 181 178 179 181 182 181 178 175 172 171 169 167 167 168 167 165 162 160 154 149 143 128 114 99 87 79 67 63 58 54 51 45 43 37 32 29 25 23 20 15 12 7
220 136 134 198 187 173 206 202 184 180 286 283 218 223 223 207 258 259 263 289 265 253 260 262 263 258 239 219 207 205 207 206 207 208 207 208 208 206 205 203 202 201 200 200 200 199 200 200 201 201 201 199 193 188 186 182 180 181 182 183 182 179 177 175 173 171 171 171 173 174 172 166 163 159 152 144 129 115 102 91 81 70 68 62 57 53 44 40 35 28 25 20 18 15 11 8 4
179 141 185 212 169 153 203 261 73 98 254 263 199 242 283 307 275 253 219 249 263 268 267 257 253 244 222 213 206 204 206 206 207 209 208 208 208 207 206 204 203 201 201 201 201 202 201 201 202 201 201 200 195 189 188 185 182 183 184 184 184 182 180 180 179 177 175 176 177 177 177 171 166 164 158 147 135 124 115 102 89 80 75 69 62 53 42 36 29 22 19 16 14 13 11 8 3
129 183 201 174 67 97 136 250 348 45 255 266 214 241 271 271 271 308 116 231 257 268 259 252 249 230 215 214 207 205 207 207 208 208 208 209 209 208 206 205 204 203 202 203 203 203 202 203 204 202 201 199 195 191 189 187 185 185 186 186 185 183 182 183 184 184 184 183 182 180 180 178 172 169 165 155 147 139 131 122 113 101 88 79 64 49 38 28 22 17 14 13 14 12 11 7 0
123 175 177 138 135 217 124 172 228 199 251 277 262 251 254 217 224 281 155 215 234 242 240 245 242 224 216 213 207 205 206 205 206 207 208 209 210 210 207 205 204 204 204 205 205 204 203 205 206 206 204 200 196 193 190 189 188 187 188 187 186 185 184 185 187 189 190 189 188 185 183 182 178 174 171 165 160 154 148 143 136 126 104 81 58 43 33 22 16 14 10 9 7 4 2 360 353
60 107 152 130 135 182 171 168 179 166 225 275 300 290 257 218 191 185 204 212 215 224 226 230 236 228 218 211 206 204 205 206 207 208 209 209 210 210 208 205 204 203 204 206 206 205 204 205 205 206 205 201 198 196 192 191 190 189 190 188 187 187 186 189 192 193 194 192 191 191 187 185 184 180 176 172 169 165 162 162 159 152 131 88 57 36 24 17 13 8 2 359 354 352 350 346 341
155 153 171 189 132 121 164 201 145 136 176 231 264 277 269 231 170 185 206 210 207 212 213 223 237 232 221 215 212 209 208 208 210 210 210 210 209 210 208 206 205 204 204 206 207 206 205 205 205 204 204 201 199 198 195 193 191 191 192 190 188 189 189 192 194 195 196 195 193 193 190 189 187 184 182 179 177 175 175 177 175 168 153 116 60 23 12 8 4 355 348 344 341 339 335 330 327
180 187 189 186 170 145 172 232 197 145 195 189 188 271 271 235 165 195 205 205 209 212 212 226 240 234 225 222 218 215 213 212 213 212 210 210 209 209 207 205 205 205 205 206 207 207 206 206 204 204 204 202 201 200 197 194 193 193 194 193 192 192 193 195 196 196 197 197 196 194 193 192 190 188 186 184 184 184 183 183 182 180 175 168 21 5 360 351 348 340 334 332 329 326 323 319 316